sat.trackr.live / text

‹ back to catalog

STARLINK-31775

NORAD 60052 · 2024-112Q

PAYLOAD ACTIVE UNKNOWN

§ Identity

Operator
Country
US
Launch date
2024-06-08
Launch site
AFWTR
Launch vehicle
Mass (kg)
RCS (m²)

Purposes: comms

External: N2YO · Heavens-Above · Gunter

§ Orbital elements

Epoch: 2026-05-25T02:39:21.138912Z

Period
94.11 min
Inclination
53.1600°
Eccentricity
0.0001174
Mean motion
15.30185889 rev/d
Perigee alt
474.5 km
Apogee alt
476.1 km
Semi-major
6,853.4 km
B*
1.1681e-4
RAAN
83.2659°
Arg perigee
101.5376°
Mean anomaly
258.5756°
Rev number
11,029

§ Raw data

STARLINK-317751 60052U 24112Q   26145.11066133  .00003100  00000+0  11681-3 0  99952 60052  53.1600  83.2659 0001174 101.5376 258.5756 15.30185889110298

JSON: /api/v1/satellites/60052 · /tle

For live sub-satellite position, see the globe view (requires WebGL).

§ Visibility from observer

Set your observer location to see the next 7 days of passes ≥ 10°. The values pass through the URL so the page stays shareable.

No JS? Fill the form by hand. The geolocation button needs JavaScript.